sat.trackr.live / text

‹ back to catalog

STARLINK-4101

NORAD 53142 · 2022-083L

PAYLOAD ACTIVE UNKNOWN

§ Identity

Operator
Country
US
Launch date
2022-07-17
Launch site
AFETR
Launch vehicle
Mass (kg)
RCS (m²)

Purposes: comms

External: N2YO · Heavens-Above · Gunter

§ Orbital elements

Epoch: 2026-09-19T22:26:44.486304Z

Period
93.85 min
Inclination
53.1620°
Eccentricity
0.0001120
Mean motion
15.34389200 rev/d
Perigee alt
462.0 km
Apogee alt
463.5 km
Semi-major
6,840.9 km
B*
2.5989e-5
RAAN
6.7013°
Arg perigee
82.4038°
Mean anomaly
277.7092°
Rev number
23,076

§ Raw data

STARLINK-41011 53142U 22083L   26262.93523711  .00000502  00000+0  25989-4 0  99922 53142  53.1620   6.7013 0001120  82.4038 277.7092 15.34389200230767

JSON: /api/v1/satellites/53142 · /tle

For live sub-satellite position, see the globe view (requires WebGL).

§ Visibility from observer

Set your observer location to see the next 7 days of passes ≥ 10°. The values pass through the URL so the page stays shareable.

No JS? Fill the form by hand. The geolocation button needs JavaScript.